Buckhead, Georgia, United States (30625)
Lat: 33.57N, Lon: 83.36W
Wx Zone: GAZ049
Local Info
Past Weather Observations for Today

NOTE: This archive is for the closest National Weather Service station to Buckhead. Information may differ from the station used for current weather conditions.

Click here for Long-term Archive

Time Weather Temperature Dewpoint Humidity Pressure Winds Precip Visibility
18:15
Partly Cloudy
81°F / 27°C 68°F / 20°C 66% 30.04 in
(1017 mb)
E 3.5 mph
(E 6 kph)
- 10SM
17:55
Partly Cloudy
81°F / 27°C 68°F / 20°C 66% 30.04 in
(1017 mb)
Calm - 10SM
17:35
Clear
81°F / 27°C 68°F / 20°C 66% 30.04 in
(1017 mb)
E 3.5 mph
(E 6 kph)
- 10SM
17:15
Clear
81°F / 27°C 68°F / 20°C 66% 30.04 in
(1017 mb)
Calm - 10SM
16:55
Partly Cloudy
81°F / 27°C 68°F / 20°C 66% 30.06 in
(1018 mb)
NE 3.5 mph
(NE 6 kph)
- 10SM
16:35
Partly Cloudy
81°F / 27°C 68°F / 20°C 66% 30.06 in
(1018 mb)
E 3.5 mph
(E 6 kph)
- 10SM
16:15
Partly Cloudy
81°F / 27°C 68°F / 20°C 66% 30.06 in
(1018 mb)
E 3.5 mph
(E 6 kph)
- 10SM
15:55
Clear
81°F / 27°C 66°F / 19°C 62% 30.06 in
(1018 mb)
Calm - 10SM
15:35
Mostly Cloudy
79°F / 26°C 66°F / 19°C 65% 30.06 in
(1018 mb)
Calm - 10SM
15:15
Partly Cloudy
81°F / 27°C 66°F / 19°C 62% 30.06 in
(1018 mb)
Calm - 10SM
14:55
Partly Cloudy
81°F / 27°C 68°F / 20°C 66% 30.06 in
(1018 mb)
Calm - 10SM
14:35
Partly Cloudy
79°F / 26°C 68°F / 20°C 70% 30.06 in
(1018 mb)
E 3.5 mph
(E 6 kph)
- 10SM
14:15
Mostly Cloudy
79°F / 26°C 68°F / 20°C 70% 30.09 in
(1019 mb)
Calm - 10SM
13:55
Overcast
75°F / 24°C 68°F / 20°C 78% 30.09 in
(1019 mb)
Calm - 10SM
13:35
Overcast
75°F / 24°C 68°F / 20°C 78% 30.09 in
(1019 mb)
Calm - 10SM
13:15
Overcast
73°F / 23°C 66°F / 19°C 78% 30.09 in
(1019 mb)
Calm - 10SM
12:55
Overcast
73°F / 23°C 66°F / 19°C 78% 30.09 in
(1019 mb)
Calm - 10SM
12:35
Overcast
73°F / 23°C 68°F / 20°C 83% 30.09 in
(1019 mb)
Calm - 10SM
12:15
Overcast
72°F / 22°C 68°F / 20°C 88% 30.12 in
(1020 mb)
Calm - 10SM
11:55
Overcast
Light Rain
72°F / 22°C 66°F / 19°C 83% 30.12 in
(1020 mb)
Calm - 10SM
11:35
Overcast
72°F / 22°C 64°F / 18°C 78% 30.12 in
(1020 mb)
Calm - 10SM
11:15
Overcast
70°F / 21°C 64°F / 18°C 83% 30.12 in
(1020 mb)
Calm - 10SM
10:55
Overcast
70°F / 21°C 64°F / 18°C 83% 30.12 in
(1020 mb)
ESE 4.6 mph
(ESE 7 kph)
- 10SM
10:35
Overcast
70°F / 21°C 64°F / 18°C 83% 30.12 in
(1020 mb)
Calm - 10SM
10:15
Overcast
68°F / 20°C 64°F / 18°C 88% 30.12 in
(1020 mb)
Calm - 10SM
09:55
Overcast
66°F / 19°C 63°F / 17°C 88% 30.12 in
(1020 mb)
Calm - 10SM
09:35
Overcast
64°F / 18°C 63°F / 17°C 94% 30.12 in
(1020 mb)
Calm - 10SM
09:15
Overcast
64°F / 18°C 61°F / 16°C 88% 30.12 in
(1020 mb)
Calm - 7SM
08:55
Overcast
63°F / 17°C 61°F / 16°C 94% 30.12 in
(1020 mb)
Calm - 10SM
08:35
Overcast
63°F / 17°C 61°F / 16°C 94% 30.12 in
(1020 mb)
Calm - 10SM
08:15
Overcast
61°F / 16°C 61°F / 16°C 100% 30.12 in
(1020 mb)
Calm - 10SM
07:55
Overcast
61°F / 16°C 59°F / 15°C 94% 30.12 in
(1020 mb)
Calm - 7SM
07:35
Overcast
Light Rain
61°F / 16°C 59°F / 15°C 94% 30.12 in
(1020 mb)
Calm - 7SM
07:15
Overcast
61°F / 16°C 59°F / 15°C 94% 30.12 in
(1020 mb)
Calm - 7SM
06:55
Overcast
61°F / 16°C 59°F / 15°C 94% 30.12 in
(1020 mb)
Calm - 7SM
06:35
Overcast
61°F / 16°C 59°F / 15°C 94% 30.12 in
(1020 mb)
Calm - 7SM
05:15
Overcast
61°F / 16°C 61°F / 16°C 100% 30.06 in
(1018 mb)
Calm - 7SM
04:55
Overcast
61°F / 16°C 61°F / 16°C 100% 30.06 in
(1018 mb)
Calm - 7SM
04:35
Overcast
61°F / 16°C 61°F / 16°C 100% 30.06 in
(1018 mb)
Calm - 7SM
04:15
Overcast
Fog And Mist
61°F / 16°C 61°F / 16°C 100% 30.06 in
(1018 mb)
Calm - 5SM
03:55
Overcast
Fog And Mist
63°F / 17°C 61°F / 16°C 94% 30.06 in
(1018 mb)
Calm - 5SM
03:35
Mostly Cloudy
Fog And Mist
63°F / 17°C 61°F / 16°C 94% 30.06 in
(1018 mb)
Calm - 5SM
03:15
Overcast
Fog And Mist
63°F / 17°C 63°F / 17°C 100% 30.06 in
(1018 mb)
Calm - 5SM
02:55
Overcast
Fog And Mist
63°F / 17°C 63°F / 17°C 100% 30.06 in
(1018 mb)
Calm - 5SM
02:35
Overcast
Fog And Mist
63°F / 17°C 63°F / 17°C 100% 30.06 in
(1018 mb)
Calm - 2SM
02:15
Partly Cloudy
Fog And Mist
63°F / 17°C 63°F / 17°C 100% 30.06 in
(1018 mb)
Calm - 4SM
01:55
Partly Cloudy
Fog And Mist
64°F / 18°C 63°F / 17°C 94% 30.06 in
(1018 mb)
Calm - 5SM
01:35
Overcast
64°F / 18°C 63°F / 17°C 94% 30.06 in
(1018 mb)
Calm - 7SM
01:15
Mostly Cloudy
64°F / 18°C 63°F / 17°C 94% 30.06 in
(1018 mb)
Calm - 7SM
00:55
Partly Cloudy
Fog And Mist
64°F / 18°C 64°F / 18°C 100% 30.09 in
(1019 mb)
Calm - 5SM
00:35
Mostly Cloudy
64°F / 18°C 64°F / 18°C 100% 30.09 in
(1019 mb)
Calm - 7SM
00:15
Mostly Cloudy
66°F / 19°C 64°F / 18°C 94% 30.09 in
(1019 mb)
Calm - 7SM
Time Weather Temperature Dewpoint Humidity Pressure Winds Precip Visibility


Weather for websites

WeatherForYou.com, LLC is not responsible for any damages or problems caused by this service. Current weather conditions are obtained from the closest station including government and personal stations which may have varying degrees of accuracy. Weather forecasts are derived from the NOAA NDFD. Like all things, this site belongs to Jesus Christ... He just trusts me to maintain it. If you have any questions or comments email webmaster@weatherforyou.com

Copyright © 2014, WeatherForYou.com LLC. All rights reserved.